Location: Moscow
(55.7500°N, 37.5830°E)
Time: 13:19:01
(UTC+03:00)

S-56A Canister/Altair - Pass Details

Date: 04 December 2021
Orbit: 633 x 2499 km, 38.9° (Epoch: 17 January)

Event Time Altitude Azimuth Distance (km) Brightness Sun altitude
Rises 02:16:47 0° 239° (WSW) 4,558 - -50.1°
Reaches altitude 10° 02:21:18 10° 222° (SW) 3,193 - -49.7°
Maximum altitude 02:26:00 18° 184° (S) 2,279 - -49.2°
Drops below altitude 10° 02:29:49 10° 143° (SE) 2,500 - -48.8°
Sets 02:32:47 0° 123° (ESE) 3,229 - -48.5°
